Location: Mount Kobau Star Party
(49.1167°N, 119.7333°W)
Time: 12:36:09
(UTC-07:00)

ARIANE 6 FM1 Upper Stage - Pass Details

Date: 13 April 2026
Orbit: 526 x 601 km, 62.0° (Epoch: 18 May)

Event Time Altitude Azimuth Distance (km) Brightness Sun altitude
Rises 03:33:25 0° 314° (NW) 2,669 6.2 -22.7°
Reaches altitude 10° 03:35:38 10° 312° (NW) 1,773 5.2 -22.5°
Enters shadow 03:36:31 16° 311° (NW) 1,418 4.7 -22.4°
